Погода в Осиновке

Россия / Приморский край     43°57′17″N   132°14′02″E
темп.,
°C
ветер,
м/с
пор.,
м/с
влажн.,
%
обл.,
%
осадки,
мм/ч
давл.,
гПа
погр.,
м
22 апреля, чт
чт2201:00+11юв22345 0.0 102217
04:00+10юв22345 0.0 102211
07:00+9вюв223712 0.0 102212
10:00+17ююз3427100 0.0 1022410
13:00+21ююз6727100 0.0 1021960
16:00+19юз81028100 0.0 1021848
19:00+13юз71539100 0.0 1022502
22:00+9юз51447100 0.0 1025432
23 апреля, пт
пт2301:00+8юз51250100 0.0 1026441
04:00+7ююз495681 0.0 1026288
07:00+6ююз3859100 0.0 1026250
10:00+12ююз5838100 0.0 1025491
13:00+17ююз7833100 0.0 1024764
16:00+17ююз5634100 0.0 1023546
19:00+14ююз2247100 0.0 102377
22:00+12ю1150100 0.0 102314
24 апреля, сб
сб2401:00+11сз1154100 0.0 102310
04:00+10ссв2266100 0.0 102225
07:00+11с3789100 0.0 1022288
10:00+6ссв81271100 0.1 1023484
13:00+5ссв71064100 0.3 1024660
16:00+4св2567100 0.5 1023357
19:00+7ссв13500 0.0 1022273
22:00+4сз11500 0.0 102210
25 апреля, вс
вс2501:00+3ссз11440 0.0 102210
04:00+2зсз11460 0.0 102210
07:00+2зюз23520 0.0 102243
10:00+10ссз714300 0.0 10212152
13:00+12с912244 0.0 10202550
16:00+12ссв812232 0.0 10202381
19:00+10ссв58260 0.0 1020670
22:00+6в22300 0.0 102217
26 апреля, пн
пн2601:00+4юз22340 0.0 102311
04:00+3ююв223639 0.0 102310
07:00+4юв2236100 0.0 102313
10:00+10ю2326100 0.0 1023497
13:00+16ююз662433 0.0 10201543
16:00+16ююз810295 0.0 10181285
19:00+12ю9165721 0.0 1018749
22:00+10ю9186125 0.0 1018710